Regional Weather Roundup
Issued by NWS

Home | Current Version | Previous Version | Text Only | Print | Product List | Glossary On
Versions: 1 2 3 4 5 6 7 8 9 10 11 12 13 14 15 16 17 18 19 20 21 22 23 24 25 26 27 28 29 30 31 32 33 34 35 36 37 38 39 40 41 42 43 44 45 46 47 48 49 50
000
ASUS43 KDMX 240701
RWRIA

WEATHER ROUNDUP FOR IOWA
NATIONAL WEATHER SERVICE DES MOINES IA
200 AM CDT TUE APR 24 2018

NOTE: "FAIR" INDICATES FEW OR NO CLOUDS BELOW 12,000 FEET WITH NO
SIGNIFICANT WEATHER AND/OR OBSTRUCTIONS TO VISIBILITY.

* - THESE STATIONS ARE NOT NWS STATIONS...THUS NOT UNDER NWS
QUALITY CONTROL.  THEY ALSO DO NOT REPORT WEATHER SUCH
AS PRECIPITATION OR FOG.

IAZ001>003-012>014-020>022-031>034-043>046-240800-
   NORTHWEST IOWA

CITY           SKY/WX    TMP DP  RH WIND       PRES   REMARKS
CARROLL *      PTCLDY    48  41  76 NW5       30.13S
CHEROKEE *     PTCLDY    44  41  89 CALM      30.15S
DENISON *      MOCLDY    48  39  71 NE5       30.15S
LE MARS *      CLEAR     45  39  81 CALM      30.15R
ORANGE CITY *  PTCLDY    48  41  76 E3        30.15S
SHELDON *      CLOUDY    43  39  87 CALM      30.14S
SIOUX CITY     MOCLDY    47  39  74 CALM      30.15R
SPENCER        CLOUDY    40  38  93 CALM      30.15S FOG
STORM LAKE *   CLEAR     48  41  76 NE8       30.15S
$$

IAZ055>058-069>071-079>083-090>094-240800-
   SOUTHWEST IOWA

CITY           SKY/WX    TMP DP  RH WIND       PRES   REMARKS
ATLANTIC *     CLOUDY    46  37  71 N6        30.12S
AUDUBON *      CLOUDY    48  41  76 CALM      30.14S
CLARINDA *       N/A     41  34  75 N6        30.13R
COUNCIL BLFS * CLEAR     50  39  66 NE8       30.12R
CRESTON *      CLEAR     52  30  43 N12       30.11S
HARLAN  *      MOCLDY    50  41  71 N7        30.16S
LAMONI         CLEAR     51  28  41 N5        30.08R
RED OAK *      CLEAR     46  32  57 N6        30.12R
SHENANDOAH *   CLEAR     43  32  65 NE7       30.12R
$$

IAZ047>049-059>061-072>074-084-240800-
   CENTRAL IOWA

CITY           SKY/WX    TMP DP  RH WIND       PRES   REMARKS
AMES           CLEAR     47  37  68 N5        30.12R
ANKENY *       CLEAR     45  34  65 N6        30.12R
BOONE *        CLEAR     46  39  76 N8        30.11S
CHARITON *     CLEAR     50  28  43 N7        30.08S
DES MOINES     CLEAR     53  32  44 CALM      30.11R
GRINNELL*      CLEAR     50  29  43 NE8       30.10S
KNOXVILLE *    CLEAR     50  30  46 N6        30.07S
MARSHALLTOWN   CLEAR     44  34  67 N7        30.10S
NEWTON *       CLEAR     50  28  43 N7        30.10S
PELLA *        CLEAR     46  29  52 N5        30.09F
$$

IAZ004>006-015-016-023>025-035-036-240800-
   NORTH CENTRAL IOWA

CITY           SKY/WX    TMP DP  RH WIND       PRES   REMARKS
ALGONA *       CLEAR     46  39  76 NW5       30.14S
CLARION *      PTCLDY    45  41  87 N6        30.13S
ESTHERVILLE    CLEAR     40  37  89 NW7       30.15S
FORT DODGE *   CLEAR     50  42  74 N6        30.14S
MASON CITY     CLEAR     42  38  85 NW6       30.14F
FOREST CITY *  FAIR      41  41 100 N3        30.14S
IOWA FALLS *   FAIR      46  38  76 CALM      30.14R
$$

IAZ007>011-017>019-026>030-037>042-050>054-066-240800-
   NORTHEAST IOWA

CITY           SKY/WX    TMP DP  RH WIND       PRES   REMARKS
CEDAR RAPIDS   FAIR      50  29  44 E7        30.08S
CHARLES CITY * FAIR      48  36  61 NE8       30.13S
CLINTON *      FAIR      48  33  56 E6        30.09S
DECORAH *      FAIR      46  34  61 CALM      30.12R
DUBUQUE        FAIR      45  32  60 NE8       30.10S
MONTICELLO *   FAIR      45  32  61 CALM      30.10R
OELWEIN *      CLOUDY    46  32  57 NE7       30.12S
WATERLOO       FAIR      42  36  79 CALM      30.11S
$$

IAZ064-065-067-068-078-240800-
   EAST CENTRAL IOWA

CITY           SKY/WX    TMP DP  RH WIND       PRES   REMARKS
DAVENPORT      FAIR      50  32  50 E6        30.09F
IOWA CITY      FAIR      51  27  39 NE7       30.10R
MUSCATINE *    FAIR      48  34  57 N5        30.08R
QUAD CITIES    FAIR      54  40  59 E3        30.06F
$$

IAZ062-063-075>077-085>089-095>099-240800-
   SOUTHEAST IOWA

CITY           SKY/WX    TMP DP  RH WIND       PRES   REMARKS
BURLINGTON     PTCLDY    53  46  77 NE5       30.05S
FAIRFIELD *    CLOUDY    48  30  49 NE8       30.06S
FORT MADISON * PTCLDY    52  46  82 N3        30.06S
KEOKUK *       MOCLDY    52  48  87 NE6       30.04S
OSKALOOSA *    FAIR      46  28  47 NE9       30.08R
CENTERVILLE *    N/A     48  27  43 N3        30.08S
OTTUMWA        CLEAR     50  28  42 NE8       30.07S
WASHINGTON *   CLOUDY    48  32  53 NE8       30.08S
$$

ABBREVIATIONS USED IN REMARKS
   TC - TEMPERATURES IN CELSIUS
  WCI - WIND CHILL INDEX
   HX - HEAT INDEX
  VSB - VISIBILITY
$$





USA.gov is the U.S. government's official web portal to all federal, state and local government web resources and services.